DW5861 Weather Reports


Display with metric or nautical units.
time (UTC)temp
F
wind
direction
speed
MPH
gust
MPH
rain 1hr
in
rain 24hr
in
rain mn
in
humidity
%
barometer
mb
20210919055505 76 0 0.0 0.0 0.00 0.00 0.00 92 1014.5
20210919055004 76 0 0.0 0.0 0.00 0.00 0.00 92 1014.5
20210919054505 76 0 0.0 0.0 0.00 0.00 0.00 92 1014.5
20210919054004 77 0 0.0 0.0 0.00 0.00 0.00 92 1014.5
20210919053505 77 0 0.0 0.0 0.00 0.00 0.00 91 1014.6
20210919053004 77 0 0.0 0.0 0.00 0.00 0.00 91 1014.6
20210919052505 77 0 0.0 0.0 0.00 0.00 0.00 91 1014.9
20210919052004 78 0 0.0 0.0 0.00 0.00 0.00 91 1014.9
20210919051505 78 0 0.0 0.0 0.00 0.00 0.00 90 1015.1
20210919051005 78 0 0.0 0.0 0.00 0.00 0.00 90 1015.1
20210919050505 78 180 0.0 1.0 0.00 0.00 0.00 90 1015.2
20210919050005 77 200 0.0 4.0 0.00 0.00 0.00 91 1015.1
20210919045505 77 197 0.0 4.0 0.00 0.00 0.04 91 1015.1
20210919045005 77 126 0.0 2.0 0.00 0.00 0.04 92 1015.2
20210919044505 77 126 0.0 2.0 0.00 0.00 0.04 92 1015.2
20210919044004 76 328 0.0 2.0 0.00 0.00 0.04 93 1015.3
20210919043504 76 328 0.0 2.0 0.00 0.00 0.04 92 1015.4
20210919043005 76 0 0.0 0.0 0.00 0.00 0.04 92 1014.9
20210919042505 76 0 0.0 0.0 0.00 0.00 0.04 92 1014.9
20210919042005 76 0 0.0 0.0 0.00 0.00 0.04 92 1015.1
20210919041504 76 0 0.0 0.0 0.00 0.00 0.04 92 1015.1
20210919041005 76 0 0.0 0.0 0.00 0.00 0.04 91 1015.1
20210919040505 77 0 0.0 0.0 0.00 0.00 0.04 91 1015.0
20210919040004 77 0 0.0 0.0 0.00 0.00 0.04 91 1015.1
20210919035505 77 0 0.0 0.0 0.00 0.00 0.04 91 1015.0
20210919035005 77 0 0.0 0.0 0.00 0.00 0.04 91 1015.0
20210919034505 77 0 0.0 0.0 0.00 0.00 0.04 91 1014.8
20210919034005 77 0 0.0 0.0 0.00 0.00 0.04 91 1014.9
20210919033505 77 0 0.0 0.0 0.00 0.00 0.04 91 1014.8
20210919033004 77 0 0.0 0.0 0.00 0.00 0.04 90 1014.8
20210919032505 77 0 0.0 0.0 0.00 0.00 0.04 90 1014.8
20210919032004 77 0 0.0 0.0 0.00 0.00 0.04 90 1014.6
20210919031504 77 0 0.0 0.0 0.00 0.00 0.04 90 1014.6
20210919031005 77 0 0.0 0.0 0.00 0.00 0.04 90 1014.6
20210919030504 78 0 0.0 0.0 0.00 0.00 0.04 90 1014.6
20210919030005 78 0 0.0 0.0 0.00 0.00 0.04 89 1014.5
20210919025505 78 0 0.0 0.0 0.00 0.00 0.04 89 1014.5
20210919025005 78 0 0.0 0.0 0.00 0.00 0.04 88 1014.4
20210919024504 78 0 0.0 0.0 0.00 0.00 0.04 88 1014.4
20210919024005 78 0 0.0 0.0 0.00 0.00 0.04 89 1014.4
20210919023504 78 0 0.0 0.0 0.00 0.00 0.04 88 1014.3
20210919023004 78 0 0.0 0.0 0.00 0.00 0.04 88 1014.3
20210919022504 79 0 0.0 0.0 0.00 0.00 0.04 87 1014.4
20210919022005 79 0 0.0 0.0 0.00 0.00 0.04 87 1014.4
20210919021505 79 0 0.0 0.0 0.00 0.00 0.04 87 1014.3
20210919021005 79 0 0.0 0.0 0.00 0.00 0.04 87 1014.3
20210919020504 79 0 0.0 0.0 0.00 0.00 0.04 86 1014.3
20210919020004 79 0 0.0 0.0 0.00 0.00 0.04 86 1014.2
20210919015504 80 0 0.0 0.0 0.00 0.00 0.04 86 1014.2
20210919015004 80 0 0.0 0.0 0.00 0.00 0.04 85 1014.1
20210919014504 80 0 0.0 0.0 0.00 0.00 0.04 85 1014.0
20210919014004 80 0 0.0 0.0 0.00 0.00 0.04 84 1014.0
20210919013505 80 0 0.0 0.0 0.00 0.00 0.04 84 1014.0
20210919013005 80 0 0.0 0.0 0.00 0.00 0.04 83 1013.9
20210919012505 81 0 0.0 0.0 0.00 0.00 0.04 84 1013.8
20210919012004 81 0 0.0 0.0 0.00 0.00 0.04 82 1013.8
20210919011505 81 0 0.0 0.0 0.00 0.00 0.04 82 1013.8
20210919010504 81 0 0.0 0.0 0.00 0.00 0.04 81 1013.7
20210919010004 81 0 0.0 0.0 0.00 0.00 0.04 81 1013.7
20210919005505 82 0 0.0 0.0 0.00 0.00 0.04 81 1013.6
20210919005004 82 0 0.0 0.0 0.00 0.00 0.04 80 1013.6
20210919004504 82 0 0.0 0.0 0.00 0.00 0.04 80 1013.5
20210919004005 82 0 0.0 0.0 0.00 0.00 0.04 79 1013.5
20210919003504 83 0 0.0 0.0 0.00 0.00 0.04 78 1013.4
20210919003005 83 0 0.0 0.0 0.00 0.00 0.04 78 1013.4
20210919002504 83 0 0.0 0.0 0.00 0.00 0.04 78 1013.3
20210919002005 83 0 0.0 0.0 0.00 0.00 0.04 77 1013.3
20210919001505 84 0 0.0 0.0 0.00 0.00 0.04 75 1013.3
20210919001005 84 0 0.0 0.0 0.00 0.00 0.04 75 1013.3
20210919000504 84 0 0.0 0.0 0.00 0.00 0.04 75 1013.3
20210919000005 84 0 0.0 0.0 0.00 0.00 0.04 74 1013.2
20210918235504 85 0 0.0 0.0 0.00 0.00 0.04 73 1013.2
20210918235004 85 0 0.0 0.0 0.00 0.00 0.04 73 1013.2
20210918234504 85 0 0.0 0.0 0.00 0.00 0.04 72 1013.1
20210918234004 85 0 0.0 0.0 0.00 0.00 0.04 74 1013.1
20210918233504 86 0 0.0 0.0 0.00 0.00 0.04 71 1013.1
20210918233004 86 0 0.0 0.0 0.00 0.00 0.04 71 1013.1
20210918232504 86 0 0.0 0.0 0.00 0.00 0.04 69 1013.0
20210918232004 86 0 0.0 0.0 0.00 0.00 0.04 69 1013.0
20210918231504 86 328 0.0 1.0 0.00 0.00 0.04 71 1013.0
20210918231004 86 328 0.0 3.0 0.00 0.00 0.04 69 1013.0
20210918230504 87 327 0.0 4.0 0.00 0.00 0.04 71 1013.1
20210918230005 87 327 0.0 4.0 0.00 0.00 0.04 68 1012.9
20210918225504 87 0 0.0 0.0 0.00 0.00 0.04 67 1012.9
20210918225004 87 0 0.0 0.0 0.00 0.00 0.04 69 1012.9
20210918224504 87 325 0.0 1.0 0.00 0.00 0.04 68 1012.9
20210918224004 87 325 0.0 1.0 0.00 0.00 0.04 66 1013.0
20210918223504 87 326 0.0 4.0 0.00 0.00 0.04 67 1013.0
20210918223004 87 328 1.0 4.0 0.00 0.00 0.04 66 1013.0
20210918222504 87 331 1.0 3.0 0.00 0.00 0.04 64 1013.0
20210918222004 88 330 0.0 3.0 0.00 0.00 0.04 66 1013.0
20210918221505 88 330 0.0 1.0 0.00 0.00 0.04 67 1013.0
20210918221004 88 330 0.0 1.0 0.00 0.00 0.04 65 1012.9
20210918220504 88 0 0.0 0.0 0.00 0.00 0.04 67 1013.0
20210918220005 88 0 0.0 0.0 0.00 0.00 0.04 65 1012.9
20210918215504 88 0 0.0 0.0 0.00 0.00 0.04 66 1012.9
20210918215004 88 330 0.0 2.0 0.00 0.00 0.04 65 1013.0
20210918214504 88 325 1.0 5.0 0.00 0.00 0.04 67 1012.9
20210918214004 89 339 1.0 5.0 0.00 0.00 0.04 63 1013.0
20210918213504 89 83 0.0 2.0 0.00 0.00 0.04 63 1013.0
20210918213004 89 86 0.0 2.0 0.00 0.00 0.04 65 1013.1
20210918212504 89 88 0.0 4.0 0.00 0.00 0.04 65 1013.2
20210918212004 90 80 1.0 4.0 0.00 0.00 0.04 64 1013.3
20210918211504 90 23 1.0 3.0 0.00 0.00 0.04 62 1013.4
20210918211004 88 327 1.0 4.0 0.00 0.00 0.04 64 1013.4
20210918210504 88 326 1.0 8.0 0.00 0.00 0.04 64 1013.5
20210918210004 88 332 2.0 8.0 0.00 0.00 0.04 67 1013.5
20210918205504 88 337 2.0 9.0 0.00 0.00 0.04 68 1013.6
20210918205005 89 15 1.0 9.0 0.00 0.00 0.04 65 1013.7
20210918204505 88 339 1.0 6.0 0.00 0.00 0.04 67 1013.8
20210918204005 88 339 1.0 6.0 0.00 0.00 0.04 65 1013.9
20210918203504 88 27 0.0 3.0 0.00 0.00 0.04 69 1014.0
20210918203004 86 339 1.0 2.0 0.00 0.00 0.04 70 1014.2
20210918202504 87 11 1.0 3.0 0.00 0.00 0.04 66 1014.2
20210918202004 88 12 1.0 3.0 0.00 0.00 0.04 66 1014.4
20210918201504 89 290 0.0 2.0 0.00 0.00 0.04 66 1014.4
20210918201004 87 299 1.0 3.0 0.00 0.00 0.04 67 1014.5
20210918200504 87 316 1.0 3.0 0.00 0.00 0.04 68 1014.6
20210918200005 88 7 1.0 4.0 0.00 0.00 0.04 68 1014.7
20210918195504 89 358 1.0 4.0 0.00 0.00 0.04 64 1014.7
20210918195004 89 356 1.0 4.0 0.00 0.00 0.04 65 1014.7
20210918194504 89 342 1.0 4.0 0.00 0.00 0.04 66 1014.8
20210918194004 88 319 1.0 4.0 0.00 0.00 0.04 71 1015.0
20210918193504 87 311 0.0 3.0 0.00 0.00 0.04 68 1015.0
20210918193004 87 318 0.0 2.0 0.00 0.00 0.04 69 1015.0
20210918192504 86 306 1.0 5.0 0.00 0.00 0.04 70 1015.1
20210918192004 87 40 1.0 5.0 0.00 0.00 0.04 67 1015.2
20210918191504 88 64 1.0 3.0 0.00 0.00 0.04 69 1015.2
20210918191004 88 42 1.0 3.0 0.00 0.00 0.04 67 1015.3
20210918190504 88 359 1.0 5.0 0.00 0.00 0.04 71 1015.4
20210918190004 88 10 1.0 5.0 0.00 0.00 0.04 66 1015.4
20210918185504 88 354 2.0 4.0 0.00 0.00 0.04 71 1015.5
20210918185004 87 324 1.0 5.0 0.00 0.00 0.04 69 1015.6
20210918184504 87 330 1.0 5.0 0.00 0.00 0.04 68 1015.6
20210918184004 87 11 0.0 4.0 0.00 0.00 0.04 70 1015.7
20210918183504 86 338 0.0 2.0 0.00 0.00 0.04 72 1015.8
20210918183004 87 320 1.0 7.0 0.00 0.00 0.04 76 1015.9
20210918182504 87 276 1.0 7.0 0.00 0.00 0.04 71 1015.9
20210918182004 88 322 1.0 4.0 0.00 0.00 0.04 73 1015.9
20210918181504 86 1 1.0 5.0 0.00 0.00 0.04 75 1016.0
20210918181004 86 22 1.0 5.0 0.00 0.00 0.04 73 1016.1
20210918180504 84 119 0.0 2.0 0.00 0.00 0.04 77 1016.2
20210918180004 84 5 0.0 2.0 0.00 0.00 0.04 79 1016.3
20210918175504 84 347 1.0 3.0 0.00 0.00 0.04 77 1016.4
20210918175004 85 338 1.0 3.0 0.00 0.00 0.04 77 1016.5
20210918174504 84 0 0.0 0.0 0.00 0.00 0.04 77 1016.6
20210918174004 84 329 0.0 3.0 0.00 0.00 0.04 83 1016.7
20210918173504 84 325 0.0 3.0 0.00 0.00 0.04 77 1016.7
20210918173004 86 282 0.0 1.0 0.00 0.00 0.04 74 1016.7
20210918172504 87 336 0.0 2.0 0.00 0.00 0.04 78 1016.8
20210918172004 86 13 1.0 2.0 0.00 0.00 0.04 74 1016.8
20210918171504 85 24 1.0 2.0 0.00 0.00 0.04 81 1016.8
20210918171004 84 46 0.0 2.0 0.00 0.00 0.04 83 1016.9
20210918170504 83 75 1.0 3.0 0.00 0.00 0.04 87 1017.0
20210918170004 82 70 0.0 3.0 0.00 0.00 0.04 87 1017.0
20210918165504 82 0 0.0 0.0 0.00 0.00 0.04 89 1017.0
20210918165005 82 0 0.0 0.0 0.00 0.00 0.04 88 1017.1
20210918164505 83 0 0.0 0.0 0.00 0.00 0.04 88 1017.2
20210918164004 82 0 0.0 0.0 0.00 0.00 0.04 90 1017.2
20210918163504 80 0 0.0 0.0 0.00 0.00 0.04 92 1017.3
20210918163004 79 0 0.0 0.0 0.00 0.00 0.04 93 1017.4
20210918162504 79 0 0.0 0.0 0.00 0.00 0.04 93 1017.4
20210918162004 79 0 0.0 0.0 0.00 0.00 0.04 92 1017.5
20210918161504 80 0 0.0 0.0 0.00 0.00 0.04 91 1017.4
20210918161004 80 0 0.0 0.0 0.00 0.00 0.03 89 1017.5
20210918160504 81 0 0.0 0.0 0.00 0.00 0.03 88 1017.5
20210918160004 82 0 0.0 0.0 0.00 0.00 0.01 85 1017.5
20210918155504 83 345 0.0 1.0 0.00 0.00 0.00 83 1017.5
20210918155004 83 345 0.0 3.0 0.00 0.00 0.00 81 1017.4
20210918154504 83 345 0.0 3.0 0.00 0.00 0.00 82 1017.4
20210918154004 84 345 0.0 1.0 0.00 0.00 0.00 80 1017.4
20210918153504 82 0 0.0 0.0 0.00 0.00 0.00 83 1017.5
20210918153004 82 0 0.0 0.0 0.00 0.00 0.00 84 1017.6
20210918152504 82 0 0.0 0.0 0.00 0.00 0.00 84 1017.6
20210918152004 82 0 0.0 0.0 0.00 0.00 0.00 85 1017.6
20210918151504 81 0 0.0 0.0 0.00 0.00 0.00 85 1017.5
20210918151004 81 0 0.0 0.0 0.00 0.00 0.00 85 1017.5
20210918150504 82 0 0.0 0.0 0.00 0.00 0.00 86 1017.3
20210918150004 81 0 0.0 0.0 0.00 0.00 0.00 88 1017.2
20210918145504 80 0 0.0 0.0 0.00 0.00 0.00 88 1017.2
20210918145004 79 0 0.0 0.0 0.00 0.00 0.00 90 1017.1
20210918144504 78 0 0.0 0.0 0.00 0.00 0.00 90 1017.1
20210918144004 78 0 0.0 0.0 0.00 0.00 0.00 91 1017.0
20210918143504 78 0 0.0 0.0 0.00 0.00 0.00 91 1017.0
20210918143004 78 0 0.0 0.0 0.00 0.00 0.00 92 1016.9
20210918142504 77 0 0.0 0.0 0.00 0.00 0.00 92 1016.9
20210918142004 77 0 0.0 0.0 0.00 0.00 0.00 92 1016.8
20210918141504 76 0 0.0 0.0 0.00 0.00 0.00 94 1016.7
20210918141004 76 0 0.0 0.0 0.00 0.00 0.00 94 1016.6
20210918140504 76 0 0.0 0.0 0.00 0.00 0.00 95 1016.7
20210918140004 76 0 0.0 0.0 0.00 0.00 0.00 96 1016.7
20210918135504 75 0 0.0 0.0 0.00 0.00 0.00 96 1016.5
20210918135004 75 0 0.0 0.0 0.00 0.00 0.00 96 1016.5
20210918134504 75 0 0.0 0.0 0.00 0.00 0.00 96 1016.5
20210918134004 75 0 0.0 0.0 0.00 0.00 0.00 97 1016.5
20210918133504 75 0 0.0 0.0 0.00 0.00 0.00 97 1016.5
20210918133005 74 0 0.0 0.0 0.00 0.00 0.00 97 1016.5
20210918132504 74 0 0.0 0.0 0.00 0.00 0.00 97 1016.3
20210918132004 74 0 0.0 0.0 0.00 0.00 0.00 97 1016.3
20210918131504 74 0 0.0 0.0 0.00 0.00 0.00 97 1016.4
20210918131004 74 0 0.0 0.0 0.00 0.00 0.00 97 1016.3
20210918130504 74 0 0.0 0.0 0.00 0.00 0.00 97 1016.2
20210918130004 74 0 0.0 0.0 0.00 0.00 0.00 97 1016.3
20210918125504 73 0 0.0 0.0 0.00 0.00 0.00 97 1016.3
20210918125004 73 0 0.0 0.0 0.00 0.00 0.00 97 1016.2
20210918124504 73 0 0.0 0.0 0.00 0.00 0.00 97 1016.2
20210918124004 73 0 0.0 0.0 0.00 0.00 0.00 97 1016.2
20210918123504 73 0 0.0 0.0 0.00 0.00 0.00 97 1016.2
20210918123004 72 0 0.0 0.0 0.00 0.00 0.00 97 1016.1
20210918122504 72 0 0.0 0.0 0.00 0.00 0.00 96 1016.1
20210918122004 72 0 0.0 0.0 0.00 0.00 0.00 96 1016.2
20210918121504 72 0 0.0 0.0 0.00 0.00 0.00 96 1016.2
20210918121004 72 0 0.0 0.0 0.00 0.00 0.00 96 1016.2
20210918120504 72 0 0.0 0.0 0.00 0.00 0.00 96 1016.1
20210918120004 72 0 0.0 0.0 0.00 0.00 0.00 96 1016.2
20210918115504 72 0 0.0 0.0 0.00 0.00 0.00 97 1016.2
20210918115004 72 0 0.0 0.0 0.00 0.00 0.00 97 1016.1
20210918114504 72 0 0.0 0.0 0.00 0.00 0.00 96 1016.0
20210918114004 72 0 0.0 0.0 0.00 0.00 0.00 96 1016.0
20210918113504 72 0 0.0 0.0 0.00 0.00 0.00 96 1016.1
20210918113004 72 0 0.0 0.0 0.00 0.00 0.00 96 1016.2
20210918112504 72 0 0.0 0.0 0.00 0.00 0.00 96 1016.2
20210918112004 72 0 0.0 0.0 0.00 0.00 0.00 96 1016.2
20210918111504 72 0 0.0 0.0 0.00 0.00 0.00 96 1016.3
20210918111004 72 0 0.0 0.0 0.00 0.00 0.00 96 1016.2
20210918110504 72 0 0.0 0.0 0.00 0.00 0.00 96 1016.2
20210918110004 72 0 0.0 0.0 0.00 0.00 0.00 96 1016.1
20210918105504 73 0 0.0 0.0 0.00 0.00 0.00 96 1016.1
20210918105004 73 0 0.0 0.0 0.00 0.00 0.00 96 1016.1
20210918104504 73 0 0.0 0.0 0.00 0.00 0.00 96 1016.0
20210918104004 73 0 0.0 0.0 0.00 0.00 0.00 96 1016.0
20210918103504 73 0 0.0 0.0 0.00 0.00 0.00 96 1016.0
20210918103004 73 0 0.0 0.0 0.00 0.00 0.00 96 1016.0
20210918102504 73 0 0.0 0.0 0.00 0.00 0.00 96 1016.0
20210918102004 73 0 0.0 0.0 0.00 0.00 0.00 96 1016.1
20210918101503 73 0 0.0 0.0 0.00 0.00 0.00 96 1016.2
20210918101004 73 0 0.0 0.0 0.00 0.00 0.00 96 1016.1
20210918100504 73 0 0.0 0.0 0.00 0.00 0.00 96 1016.1
20210918100004 73 0 0.0 0.0 0.00 0.00 0.00 96 1016.1
20210918095504 73 0 0.0 0.0 0.00 0.00 0.00 96 1016.0
20210918095004 73 0 0.0 0.0 0.00 0.00 0.00 96 1015.9
20210918094504 73 0 0.0 0.0 0.00 0.00 0.00 96 1016.0
20210918094004 73 0 0.0 0.0 0.00 0.00 0.00 96 1015.9
20210918093504 73 0 0.0 0.0 0.00 0.00 0.00 96 1016.0
20210918093004 73 0 0.0 0.0 0.00 0.00 0.00 96 1016.0
20210918092504 73 0 0.0 0.0 0.00 0.00 0.00 96 1016.2
20210918092004 73 0 0.0 0.0 0.00 0.00 0.00 96 1016.2
20210918091504 74 0 0.0 0.0 0.00 0.00 0.00 96 1016.2
20210918091004 74 0 0.0 0.0 0.00 0.00 0.00 96 1016.2
20210918090504 74 0 0.0 0.0 0.00 0.00 0.00 96 1016.2
20210918090004 74 0 0.0 0.0 0.00 0.00 0.00 96 1016.2
20210918085504 74 0 0.0 0.0 0.00 0.00 0.00 96 1016.2
20210918085004 73 0 0.0 0.0 0.00 0.00 0.00 96 1016.1
20210918084504 73 0 0.0 0.0 0.00 0.00 0.00 96 1016.0
20210918084004 73 0 0.0 0.0 0.00 0.00 0.00 96 1016.0
20210918083504 73 0 0.0 0.0 0.00 0.00 0.00 96 1016.0
20210918083005 73 0 0.0 0.0 0.00 0.00 0.00 96 1016.0
20210918082504 73 0 0.0 0.0 0.00 0.00 0.00 96 1015.9
20210918082004 73 0 0.0 0.0 0.00 0.00 0.00 96 1015.9
20210918081504 73 0 0.0 0.0 0.00 0.00 0.00 96 1015.9
20210918081004 73 0 0.0 0.0 0.00 0.00 0.00 96 1015.9
20210918080504 73 0 0.0 0.0 0.00 0.00 0.00 96 1015.9
20210918080004 73 0 0.0 0.0 0.00 0.00 0.00 95 1015.7
20210918075504 73 0 0.0 0.0 0.00 0.00 0.00 95 1015.7
20210918075004 73 0 0.0 0.0 0.00 0.00 0.00 95 1015.7
20210918074504 73 0 0.0 0.0 0.00 0.00 0.00 95 1015.8
20210918074004 74 0 0.0 0.0 0.00 0.00 0.00 95 1016.0
20210918073504 74 0 0.0 0.0 0.00 0.00 0.00 95 1016.1
20210918073004 74 0 0.0 0.0 0.00 0.00 0.00 95 1016.0
20210918072504 74 0 0.0 0.0 0.00 0.00 0.00 95 1016.0
20210918072004 74 0 0.0 0.0 0.00 0.00 0.00 95 1015.9
20210918071504 74 0 0.0 0.0 0.00 0.00 0.00 95 1016.0
20210918071004 74 0 0.0 0.0 0.00 0.00 0.00 95 1015.9
20210918070504 74 0 0.0 0.0 0.00 0.00 0.00 95 1015.9
20210918070004 74 0 0.0 0.0 0.00 0.00 0.00 95 1016.0
20210918065504 74 0 0.0 0.0 0.00 0.00 0.00 95 1016.0
20210918065004 74 0 0.0 0.0 0.00 0.00 0.00 95 1016.0
20210918064504 74 0 0.0 0.0 0.00 0.00 0.00 95 1016.0
20210918064004 74 0 0.0 0.0 0.00 0.00 0.00 95 1016.0
20210918063503 74 0 0.0 0.0 0.00 0.00 0.00 95 1016.0
20210918063004 74 0 0.0 0.0 0.00 0.00 0.00 95 1016.0
20210918062504 74 0 0.0 0.0 0.00 0.00 0.00 95 1016.0
20210918062003 74 0 0.0 0.0 0.00 0.00 0.00 95 1015.9
20210918061504 74 0 0.0 0.0 0.00 0.00 0.00 95 1015.8
20210918061004 74 0 0.0 0.0 0.00 0.00 0.00 95 1015.7
20210918060504 74 0 0.0 0.0 0.00 0.00 0.00 95 1015.7
20210918060004 74 0 0.0 0.0 0.00 0.00 0.00 95 1015.7